Regional Weather Roundup
Issued by NWS

Home | Current Version | Previous Version | Text Only | Print | Product List | Glossary On
Versions: 1 2 3 4 5 6 7 8 9 10 11 12 13 14 15 16 17 18 19 20 21 22 23 24 25 26 27 28 29 30 31 32 33 34 35 36 37 38 39 40 41 42 43 44 45 46 47 48 49 50
000
ASUS43 KTOP 171508
RWRKS

WEATHER ROUNDUP FOR KANSAS
NATIONAL WEATHER SERVICE GOODLAND KS
1000 AM CDT WED SEP 17 2014

NOTE:  "FAIR" INDICATES FEW OR NO CLOUDS BELOW 12,000 FEET WITH NO
SIGNIFICANT WEATHER AND/OR OBSTRUCTIONS TO VISIBILITY.

KSZ001>006-013>018-027>032-041>047-171600-
NORTHWEST KANSAS

CITY           SKY/WX    TMP DP  RH WIND       PRES   REMARKS
GOODLAND       SUNNY     70  56  61 CALM      30.00R
HAYS           SUNNY     66  57  72 NW3       29.92S
HILL CITY      CLOUDY    59  57  93 NW3       29.95R
RUSSELL        SUNNY     69  63  81 N6        29.90S
$$

KSZ061>065-074>080-084>089-171600-
SOUTHWEST KANSAS

CITY           SKY/WX    TMP DP  RH WIND       PRES   REMARKS
DODGE CITY     SUNNY     70  61  73 SW8       29.95S
ELKHART          N/A     68  60  75 SW7         N/A
GARDEN CITY    MOSUNNY   66  61  84 S6        29.96R
GREAT BEND     SUNNY     72  63  73 W8        29.92S
LIBERAL        MOSUNNY   73  63  68 SW16      30.00R
PRATT          SUNNY     73  63  68 W8        29.94S
$$

KSZ066>073-081>083-090>101-171600-
SOUTHEAST KANSAS

CITY           SKY/WX    TMP DP  RH WIND       PRES   REMARKS
CHANUTE        SUNNY     77  70  79 SW15      29.92S
COFFEYVILLE    SUNNY     76  70  82 S13       29.93S
HUTCHINSON     SUNNY     76  66  71 SW9       29.90F
MEDICINE LODGE   N/A     77  66  68 SW8       29.92R
NEWTON         SUNNY     73  64  73 SW10      29.93S
PARSONS        SUNNY     78  71  79 SW10      29.94R
WICHITA INTL   MOSUNNY   77  67  71 S9        29.91S
WICHITA JABRA  SUNNY     76  66  71 SW10      29.91S
WICHITA MCCONL SUNNY     76  71  84 S9        29.92S
WINFIELD       SUNNY     79  69  71 SW13      29.93S
$$

KSZ007>012-019>026-033>040-048>060-102>105-171600-
NORTHEAST KANSAS

CITY           SKY/WX    TMP DP  RH WIND       PRES   REMARKS
CONCORDIA      CLOUDY    65  65 100 NE6       29.92S FOG
EMPORIA        SUNNY     74  68  81 NE5       29.91R
LAWRENCE       CLOUDY    68  65  90 CALM      29.93S FOG
MANHATTAN      CLOUDY    71  67  87 CALM      29.92R FOG
MARYSVILLE     CLOUDY    66  64  94 CALM      29.93S FOG
OLATHE IND     CLOUDY    68  66  93 S5        29.94R FOG
OLATHE EXE     CLOUDY    66  66 100 CALM      29.93S
SALINA         SUNNY     75  67  76 NW5       29.91R
TOPEKA BILLARD CLOUDY    68  67  96 NE3       29.93R FOG
TOPEKA FORBES  CLOUDY    67  65  93 CALM      29.93R FOG
$$


USA.gov is the U.S. government's official web portal to all federal, state and local government web resources and services.